Terminal Aerodrome Forecast
Issued by NWS Wichita, KS

Home | Current Version | Previous Version | Graphics & Text | Print | Product List | Glossary On
Versions: 1 2 3 4 5 6 7 8 9 10 11 12 13 14 15 16 17 18 19 20 21 22
000
FTUS43 KICT 181339 AAA
TAFICT
TAF AMD
KICT 181339Z 1814/1912 18005KT 5SM BR SCT100 SCT250
      TEMPO 1814/1815 2SM BR SCT003
     FM181800 17011KT P6SM SCT200
     FM190200 16006KT P6SM BKN080
     FM190500 16008KT P6SM BKN009
     FM190700 16007KT P6SM BKN003
     FM190900 16006KT 4SM BR BKN003=

USA.gov is the U.S. government's official web portal to all federal, state and local government web resources and services.